Regional Weather Roundup
Issued by NWS

Home | Current Version | Previous Version | Text Only | Print | Product List | Glossary On
Versions: 1 2 3 4 5 6 7 8 9 10 11 12 13 14 15 16 17 18 19 20 21 22 23 24 25 26 27 28 29 30 31 32 33 34 35 36 37 38 39 40 41 42 43 44 45 46 47 48 49 50
000
ASUS43 KMKX 260021
RWRWI

WISCONSIN REGIONAL WEATHER ROUNDUP
NATIONAL WEATHER SERVICE MILWAUKEE/SULLIVAN WI
600 PM CST TUE NOV 25 2014

NOTE: "FAIR" INDICATES FEW OR NO CLOUDS BELOW 12,000 FEET WITH NO
SIGNIFICANT WEATHER AND/OR OBSTRUCTIONS TO VISIBILITY.

WIZ001-002-006>008-014>016-023>028-260100-
NORTHWEST WISCONSIN

CITY           SKY/WX    TMP DP  RH WIND       PRES   REMARKS
SUPERIOR ARPT  PTCLDY    17  10  75 CALM      30.04R
6HR MIN TEMP:  16; 6HR MAX TEMP:  23;

ASHLAND        PTCLDY    14  11  87 SW5       30.05R WCI   6
6HR MIN TEMP:  14; 6HR MAX TEMP:  22;

HAYWARD        CLOUDY    18  13  80 SW5       30.02R WCI  11
6HR MIN TEMP:  15; 6HR MAX TEMP:  19;

SIREN          CLOUDY    20  13  74 S5        30.03S WCI  13
6HR MIN TEMP:  18; 6HR MAX TEMP:  20;

CUMBERLAND     CLOUDY    19  14  79 S3        30.01S
RICE LAKE      CLOUDY    21  14  75 S5        30.04S WCI  14
6HR MIN TEMP:  17; 6HR MAX TEMP:  21;

CHETEK         CLOUDY    20  14  76 CALM      30.04S
6HR MIN TEMP:  18; 6HR MAX TEMP:  21;

LADYSMITH      CLOUDY    21  15  78 S6        30.04S WCI  13
6HR MIN TEMP:  19; 6HR MAX TEMP:  22;

EAU CLAIRE     CLOUDY    22  14  71 S5        30.05S WCI  16
6HR MIN TEMP:  16; 6HR MAX TEMP:  22;

MENOMONIE      CLOUDY    23  15  71 CALM      30.06R
6HR MIN TEMP:  20; 6HR MAX TEMP:  23;

NEW RICHMOND   CLOUDY    22  15  74 S6        30.03S WCI  15
6HR MIN TEMP:  19; 6HR MAX TEMP:  22;

OSCEOLA        CLOUDY    22  16  75 S6        30.06F WCI  15
6HR MIN TEMP:  18; 6HR MAX TEMP:  22;

$$

WIZ003>005-009-010-017-018-260100-
NORTH CENTRAL WISCONSIN

CITY           SKY/WX    TMP DP  RH WIND       PRES   REMARKS
MANITOWISH WTR CLEAR      7   6  94 S3        29.99R
6HR MIN TEMP:   7; 6HR MAX TEMP:  19;

ARBOR VITAE    CLEAR     14  12  90 CALM      30.00R
6HR MIN TEMP:  14; 6HR MAX TEMP:  22;

WOODRUFF       CLEAR     14  12  90 CALM      30.00R
6HR MIN TEMP:  14; 6HR MAX TEMP:  22;

RHINELANDER    CLEAR      9   7  92 CALM      30.01R
6HR MIN TEMP:   9; 6HR MAX TEMP:  20; 6HR PCP: TRACE;

EAGLE RIVER    CLEAR      8   5  85 CALM      30.00R
6HR MIN TEMP:   8; 6HR MAX TEMP:  20;

LAND O LAKES   CLEAR      6   3  90 CALM      30.00R
6HR MIN TEMP:   6; 6HR MAX TEMP:  23;

PHILLIPS       PTCLDY    10   7  90 S3        30.00S
6HR MIN TEMP:  10; 6HR MAX TEMP:  19;

TOMAHAWK       CLEAR      7   5  90 CALM      30.02S
6HR MIN TEMP:   7; 6HR MAX TEMP:  19;

MEDFORD        CLOUDY    15  11  83 S5        30.03R WCI   8
6HR MIN TEMP:  14; 6HR MAX TEMP:  20;

MERRILL        CLEAR     15  12  88 SW5       30.04S WCI   7
6HR MIN TEMP:  15; 6HR MAX TEMP:  22;

$$

WIZ029-030-035-036-043>047-260100-
CENTRAL WISCONSIN

CITY           SKY/WX    TMP DP  RH WIND       PRES   REMARKS
WAUSAU         CLEAR     16  11  80 SW3       30.05S
6HR MIN TEMP:  15; 6HR MAX TEMP:  19; 6HR PCP: TRACE;

MOSINEE        CLEAR     12  12 100 CALM      30.07R
MARSHFIELD     CLOUDY    19  12  74 S3        30.05S
6HR MIN TEMP:  17; 6HR MAX TEMP:  21;

STEVENS POINT  FOG       10   9  92 CALM      30.08S VSB 1
6HR MIN TEMP:  10; 6HR MAX TEMP:  19; 6HR PCP:  0.01;

WAUPACA        CLOUDY    18  14  85 SW3       30.12R
6HR MIN TEMP:  18; 6HR MAX TEMP:  25;

WAUTOMA        CLEAR     13  12  95 CALM      30.12S
6HR MIN TEMP:  13; 6HR MAX TEMP:  22;

WISC RAPIDS    MOCLDY    13   9  84 S3        30.09S
6HR MIN TEMP:  13; 6HR MAX TEMP:  22;

CAMP DOUGLAS   PTCLDY    10  10 100 E3        30.09S
$$

WIZ011>013-019>022-031-037>040-048>050-260100-
NORTHEAST WISCONSIN

CITY           SKY/WX    TMP DP  RH WIND       PRES   REMARKS
ANTIGO         CLEAR      6   4  93 SW5       30.04R WCI  -3
6HR MIN TEMP:   6; 6HR MAX TEMP:  21;

SHAWANO        PTCLDY    20  15  79 W5        30.11R WCI  14
6HR MIN TEMP:  20; 6HR MAX TEMP:  26;

OCONTO         CLOUDY    22  18  85 SW6       30.10R WCI  15
6HR MIN TEMP:  22; 6HR MAX TEMP:  25;

STURGEON BAY   CLOUDY    25  16  68 SW7       30.09R WCI  17
6HR MIN TEMP:  23; 6HR MAX TEMP:  25;

GREEN BAY      CLOUDY    22  16  78 SW9       30.11R WCI  12
6HR MIN TEMP:  22; 6HR MAX TEMP:  25;

MANITOWOC      CLOUDY    22  17  81 W6        30.13R WCI  14
6HR MIN TEMP:  22; 6HR MAX TEMP:  26; 6HR PCP: TRACE;

APPLETON       CLOUDY    21  16  79 VRB6      30.10R WCI  14
CLINTONVILLE   CLOUDY    18  16  93 CALM      30.10R
OSHKOSH        CLOUDY    20  14  77 W6        30.12R WCI  12
6HR MIN TEMP:  20; 6HR MAX TEMP:  22;

$$

WIZ032>034-041-042-053>061-260100-
SOUTHWEST WISCONSIN

CITY           SKY/WX    TMP DP  RH WIND       PRES   REMARKS
LA CROSSE      CLOUDY    24  14  65 S6        30.09F WCI  17
6HR MIN TEMP:  23; 6HR MAX TEMP:  28;

SPARTA         CLOUDY    16  14  94 E3        30.10S
6HR MIN TEMP:  15; 6HR MAX TEMP:  24;

VIROQUA        PTCLDY    16  12  84 S6        30.07S WCI   7
6HR MIN TEMP:  16; 6HR MAX TEMP:  22;

BOSCOBEL       CLEAR     18  12  77 CALM      30.13R
6HR MIN TEMP:  17; 6HR MAX TEMP:  26;

PRAIRIE DU CHI CLEAR     19  14  81 CALM      30.12S
6HR MIN TEMP:  19; 6HR MAX TEMP:  25;

PLATTEVILLE    CLEAR     19  15  86 CALM      30.11S
6HR MIN TEMP:  19; 6HR MAX TEMP:  24;

$$

WIZ056-057-062-063-064-067-068-260100-
SOUTH CENTRAL WISCONSIN

CITY           SKY/WX    TMP DP  RH WIND       PRES   REMARKS
REEDSBURG      CLEAR     17  15  91 CALM      30.10S
6HR MIN TEMP:  17; 6HR MAX TEMP:  22;

BARABOO/DELLS  CLEAR     13  11  92 CALM      30.10R FOG
6HR MIN TEMP:  13; 6HR MAX TEMP:  23;

LONE ROCK      CLEAR     15   9  76 NE3       30.12R
6HR MIN TEMP:  15; 6HR MAX TEMP:  28;

MINERAL POINT  CLEAR     21  16  79 S3        30.09S
MADISON        MOCLDY    22  15  75 CALM      30.11F
6HR MIN TEMP:  21; 6HR MAX TEMP:  23;

MIDDLETON      CLEAR     18  13  80 CALM      30.12R
6HR MIN TEMP:  18; 6HR MAX TEMP:  26;

WATERTOWN      CLOUDY    21  17  84 SW5       30.11F WCI  15
6HR MIN TEMP:  21; 6HR MAX TEMP:  22; 6HR PCP:  0.01;

MONROE         CLEAR     19  18  93 SW5       30.09F WCI  13
JANESVILLE     PTCLDY    19  14  79 SW6       30.12F WCI  11
$$

WIZ051-052-058>065-066-070>072-260100-
SOUTHEAST WISCONSIN

CITY           SKY/WX    TMP DP  RH WIND       PRES   REMARKS
MILWAUKEE      CLOUDY    22  15  75 W9        30.14R WCI  12
6HR MIN TEMP:  22; 6HR MAX TEMP:  27;

WAUKESHA       CLOUDY    19  16  86 W9        30.13S WCI   9
MILWAUKEE/TIMM CLOUDY    21  16  79 W8        30.14S WCI  12
RACINE         CLOUDY    22  16  78 W9        30.15S WCI  12
6HR MIN TEMP:  22; 6HR MAX TEMP:  26;

BURLINGTON     CLOUDY    19  15  82 W3        30.14R
6HR MIN TEMP:  19; 6HR MAX TEMP:  23;

KENOSHA        CLOUDY    22  17  81 W8        30.14R WCI  12
6HR MIN TEMP:  22; 6HR MAX TEMP:  25;

FOND DU LAC    CLOUDY    20  14  77 W6        30.12S WCI  12
6HR MIN TEMP:  20; 6HR MAX TEMP:  22; 6HR PCP: TRACE;

SHEBOYGAN      CLOUDY    21  15  78 SW10      30.12R WCI  10
6HR MIN TEMP:  21; 6HR MAX TEMP:  23;

WEST BEND      CLOUDY    21  16  79 SW5       30.11S WCI  15
JUNEAU         CLOUDY    20  16  82 SW5       30.12S WCI  14
6HR MIN TEMP:  20; 6HR MAX TEMP:  21;

$$

LSZ147-162-260100-
LAKE SUPERIOR

STATION/POSITION TIME  TEMP    WIND        PRES    WAVE
                       AIR SEA DIR/SP/G            HT/PER
                 (UTC) (F)     (DEG/KT/KT) (MB)    (FT/S)
DEVILS ISLAND    0000   22     210/ 12/ 14 1018.1R
PORT WING        2300   20     170/  4/  6 1016.9
SAXON HARBOR     2300   18        CALM     1017.3R
$$

LMZ867-665-643>646-260100-
LAKE MICHIGAN

STATION/POSITION TIME  TEMP    WIND        PRES    WAVE
                       AIR SEA DIR/SP/G            HT/PER



USA.gov is the U.S. government's official web portal to all federal, state and local government web resources and services.